Weather Roundup
Issued by NWS

Home | Current Version | Previous Version | Graphics & Text | Print | Product List | Glossary Off
Versions: 1 2 3 4 5 6 7 8 9 10 11 12 13 14 15 16 17 18 19 20 21 22 23 24 25 26 27 28 29 30 31 32 33 34 35 36 37 38 39 40 41 42 43 44 45 46 47 48 49 50

000
NZUS93 KARX 240610
HRRWXR

CURRENT HOURLY OBSERVATIONS ACROSS
MUCH OF THE UPPER MISSISSIPPI VALLEY
NATIONAL WEATHER SERVICE LA CROSSE WI
100 AM CDT FRI APR 24 2015


...SOUTHEAST MINNESOTA...


CITY           SKY/WX    TMP DP  RH WIND       PRES   REMARKS
ROCHESTER      FAIR      36  17  46 SE7       30.03R WCI  30
ROCHESTER/MAYO FAIR      41  13  31 SE8       30.02S
WINONA         NOT AVBL
AUSTIN         FAIR      37  21  52 SE3       30.01R
ALBERT LEA     CLOUDY    45  18  33 SE6       29.99F
DODGE CENTER   FAIR      32  19  59 SE7       30.01R WCI  26
PRESTON        FAIR      39  14  35 S5        30.03R
OWATONNA       FAIR      37  12  35 SE7       30.00R WCI  32
FARIBAULT      FAIR      36  16  44 CALM      30.00R
$$

...ELSEWHERE IN MINNESOTA...


CITY           SKY/WX    TMP DP  RH WIND       PRES   REMARKS
MINNEAPOLIS    MOCLDY    42  15  33 SE6       29.99S
INTNL FALLS    FAIR      25  18  74 CALM      29.98S
DULUTH         FAIR      38  15  39 E5        29.98S WCI  34
RED WING       FAIR      30  19  64 E3        30.01R
REDWOOD FALLS  CLOUDY    49  10  20 SE15      29.92F
MANKATO        CLOUDY    45  14  29 SE10      29.98S
WORTHINGTON    FAIR      45  25  45 SE10      29.91F
FAIRMONT       FAIR      48  -4  11 SE12      29.94F
$$

...SOUTHWEST WISCONSIN...


CITY           SKY/WX    TMP DP  RH WIND       PRES   REMARKS
LA CROSSE      FAIR      36  23  59 SE5       30.04R WCI  32
PRAIRIE DU CHI FAIR      32  22  65 CALM      30.05S
BOSCOBEL       FAIR      30  23  75 CALM      30.06R
LONE ROCK      FAIR      29  20  69 CALM      30.06R
PLATTEVILLE    FAIR      40  16  36 CALM      30.04S
FORT MC COY    FAIR      25  19  76 CALM      30.05S
CAMP DOUGLAS   FAIR      25  23  94 CALM      30.03S
VIROQUA        FAIR      43  10  26 S5        30.03S
WIS DELLS      FAIR      32  18  55 CALM      30.04S
$$

...ELSEWHERE IN WISCONSIN...


CITY           SKY/WX    TMP DP  RH WIND       PRES   REMARKS
MILWAUKEE      FAIR      36  24  62 SW3       30.06R
MADISON        FAIR      32  20  61 CALM      30.05R
GREEN BAY      FAIR      37  16  42 N6        30.05R WCI  32
EAU CLAIRE     FAIR      31  18  58 CALM      30.01F
BLACK RVR FLS  FAIR      22  19  85 CALM      30.03S
MEDFORD        FAIR      30  19  62 E3        30.01S
WAUSAU         FAIR      33  21  61 CALM      30.01S
WIS RAPIDS     FAIR      28  20  71 CALM      30.04S
MARSHFIELD     FAIR      35  20  54 CALM      30.01F
RICE LAKE      FAIR      31  27  84 CALM      30.02S
$$

...NORTHEAST IOWA...


CITY           SKY/WX    TMP DP  RH WIND       PRES   REMARKS
DECORAH        FAIR      37  12  35 CALM      30.03R
MASON CITY     CLOUDY    44  20  38 SE8       30.00F
CHARLES CITY   FAIR      41  16  36 SE8       30.03R
OELWEIN        FAIR      37  21  52 E7        30.04S WCI  32
$$

...ELSEWHERE IN IOWA...


CITY           SKY/WX    TMP DP  RH WIND       PRES   REMARKS
DES MOINES     CLOUDY    53  26  35 SE10      29.99S
IOWA CITY      FAIR      38  28  67 CALM      30.06S
FORT DODGE     FAIR      45  27  49 SE6       29.97S
$$

...NORTHERN ILLINOIS...


CITY           SKY/WX    TMP DP  RH WIND       PRES   REMARKS
CHICAGO-OHARE  FAIR      36  26  67 S3        30.05F
CHICAGO-MIDWAY FAIR      42  29  59 E5        30.06S
MOLINE         FAIR      31  22  69 CALM      30.06S
ROCKFORD       FAIR      35  21  56 CALM      30.06F
PEORIA         FAIR      39  22  50 CALM      30.08R
$$

NOTE: "FAIR" INDICATES FEW OR NO CLOUDS BELOW 12,000 FEET WITH NO
SIGNIFICANT WEATHER AND/OR OBSTRUCTIONS TO VISIBILITY. WIND
SPEEDS ARE IN MILES-PER-HOUR.



USA.gov is the U.S. government's official web portal to all federal, state and local government web resources and services.